HFY146 SKBO-GOBD

Flight info

Callsign HFY146
Flight time N/A
Altitude 35000
Route DANSA4RXAKROB/14R MAVDA UW20 AUC DCT MIQ/N0468F370 UN669 ELJEZ/M079F370 DCT 2150N DCT 2340N/M079F390 DCT 22N036W DCT ERNEK/N0456F390 DCT EVKAS DCT BVT DCT MOGSA DCT PIVSA PIVSA1D
Aircraft A343/H-SDE2E3FGHIJ4J5M1RWXY/LB1D1

Departure

Time N/A
Airport El Dorado International Airport (SKBO)

Arrival

Time 2026-04-25 21:40
Airport Blaise Diagne International Airport (GOBD)
Time Latitude Longitude Altitude Speed Heading
2026-04-25 14:43 6.22091 -71.74180 33022 ft 482 kts 52°
2026-04-25 14:43 6.26417 -71.69037 33005 ft 482 kts 52°
2026-04-25 14:44 6.30754 -71.63882 33005 ft 482 kts 51°
2026-04-25 14:44 6.35088 -71.58728 33029 ft 482 kts 52°
2026-04-25 14:45 6.39418 -71.53576 33019 ft 483 kts 51°
2026-04-25 14:45 6.43761 -71.48407 33015 ft 484 kts 51°
2026-04-25 14:46 6.48103 -71.43239 33006 ft 484 kts 51°
2026-04-25 14:46 6.52446 -71.38068 33003 ft 484 kts 51°
2026-04-25 14:47 6.56061 -71.33763 33005 ft 485 kts 51°
2026-04-25 14:47 6.61114 -71.27744 33000 ft 485 kts 51°
2026-04-25 14:48 6.65491 -71.22528 33005 ft 485 kts 51°
2026-04-25 14:48 6.69814 -71.17373 33005 ft 485 kts 51°
2026-04-25 14:49 6.74186 -71.12160 33000 ft 485 kts 51°
2026-04-25 14:49 6.78507 -71.07007 33008 ft 485 kts 51°
2026-04-25 14:50 6.82853 -71.01820 33006 ft 485 kts 51°
2026-04-25 14:50 6.87226 -70.96602 33002 ft 484 kts 51°
2026-04-25 14:51 6.91544 -70.91446 33005 ft 485 kts 51°
2026-04-25 14:51 6.95912 -70.86229 33000 ft 484 kts 51°
2026-04-25 14:52 7.00253 -70.81044 33002 ft 484 kts 51°
2026-04-25 14:52 7.03849 -70.76747 32993 ft 483 kts 51°
2026-04-25 14:53 7.08963 -70.70729 32992 ft 484 kts 48°
2026-04-25 14:53 7.13650 -70.65872 32993 ft 484 kts 46°
2026-04-25 14:54 7.18412 -70.61059 32997 ft 485 kts 46°
2026-04-25 14:54 7.23101 -70.56232 32999 ft 486 kts 47°
2026-04-25 14:55 7.27831 -70.51306 33000 ft 486 kts 47°
2026-04-25 14:55 7.32492 -70.46434 33003 ft 486 kts 47°
2026-04-25 14:56 7.37181 -70.41535 33004 ft 486 kts 47°
2026-04-25 14:56 7.41881 -70.36624 33004 ft 486 kts 47°
2026-04-25 14:57 7.46572 -70.31724 33007 ft 486 kts 47°
2026-04-25 14:57 7.51267 -70.26816 33007 ft 486 kts 47°
2026-04-25 14:58 7.55961 -70.21909 33006 ft 486 kts 47°
2026-04-25 14:58 7.60659 -70.16995 33006 ft 487 kts 47°
2026-04-25 14:59 7.65356 -70.12081 33007 ft 487 kts 47°
2026-04-25 14:59 7.70053 -70.07166 33007 ft 487 kts 47°
2026-04-25 15:00 7.74750 -70.02249 33009 ft 487 kts 47°
2026-04-25 15:00 7.79449 -69.97327 33010 ft 487 kts 47°
2026-04-25 15:01 7.84145 -69.92407 33004 ft 487 kts 47°
2026-04-25 15:01 7.88847 -69.87479 33008 ft 488 kts 47°
2026-04-25 15:02 7.93561 -69.82537 33006 ft 489 kts 47°
2026-04-25 15:02 7.98286 -69.77581 33003 ft 490 kts 47°
2026-04-25 15:03 8.03054 -69.72578 33001 ft 499 kts 47°
2026-04-25 15:03 8.07892 -69.67500 33264 ft 502 kts 47°
2026-04-25 15:04 8.10312 -69.64961 33517 ft 501 kts 47°
2026-04-25 15:04 8.12723 -69.62429 33728 ft 500 kts 47°
2026-04-25 15:04 8.15136 -69.59896 33955 ft 500 kts 47°
2026-04-25 15:04 8.17540 -69.57371 34121 ft 500 kts 47°
2026-04-25 15:05 8.19134 -69.55697 34289 ft 498 kts 47°
2026-04-25 15:05 8.22339 -69.52330 34572 ft 496 kts 47°
2026-04-25 15:06 8.29541 -69.44759 34918 ft 499 kts 47°
2026-04-25 15:06 8.31949 -69.42227 35071 ft 498 kts 47°
2026-04-25 15:06 8.34347 -69.39704 35248 ft 498 kts 47°
2026-04-25 15:06 8.36743 -69.37184 35397 ft 498 kts 47°
2026-04-25 15:07 8.39139 -69.34663 35547 ft 497 kts 47°
2026-04-25 15:07 8.41533 -69.32143 35692 ft 497 kts 47°
2026-04-25 15:07 8.43903 -69.29649 35838 ft 497 kts 47°
2026-04-25 15:07 8.46321 -69.27103 35985 ft 497 kts 47°
2026-04-25 15:08 8.48693 -69.24605 36099 ft 496 kts 47°
2026-04-25 15:08 8.51100 -69.22071 36259 ft 496 kts 47°
2026-04-25 15:08 8.53497 -69.19546 36297 ft 498 kts 47°
2026-04-25 15:09 8.58311 -69.14472 36409 ft 501 kts 47°
2026-04-25 15:09 8.60720 -69.11933 36544 ft 501 kts 47°
2026-04-25 15:09 8.65541 -69.06851 36808 ft 500 kts 47°
2026-04-25 15:10 8.67948 -69.04312 36938 ft 500 kts 47°
2026-04-25 15:10 8.70353 -69.01776 36988 ft 501 kts 47°
2026-04-25 15:11 8.77586 -68.94143 37000 ft 500 kts 47°
2026-04-25 15:11 8.82388 -68.89073 36998 ft 499 kts 47°
2026-04-25 15:12 8.89589 -68.81466 36989 ft 498 kts 47°
2026-04-25 15:12 8.92763 -68.78112 36994 ft 498 kts 47°
2026-04-25 15:13 9.01557 -68.68814 37006 ft 498 kts 47°
2026-04-25 15:14 9.06338 -68.63756 36993 ft 498 kts 47°
2026-04-25 15:14 9.11123 -68.58692 36992 ft 498 kts 47°
2026-04-25 15:15 9.15908 -68.53626 37005 ft 498 kts 47°
2026-04-25 15:15 9.20689 -68.48561 36996 ft 498 kts 47°
2026-04-25 15:16 9.25480 -68.43485 36990 ft 498 kts 47°
2026-04-25 15:16 9.32660 -68.35872 36995 ft 498 kts 47°
2026-04-25 15:17 9.39845 -68.28250 36989 ft 498 kts 47°
2026-04-25 15:18 9.44626 -68.23175 36999 ft 498 kts 47°
2026-04-25 15:18 9.50991 -68.16415 36995 ft 498 kts 47°
2026-04-25 15:19 9.54971 -68.12185 36992 ft 499 kts 47°
2026-04-25 15:19 9.60565 -68.06239 37001 ft 499 kts 47°
2026-04-25 15:20 9.65352 -68.01149 37000 ft 499 kts 47°
2026-04-25 15:20 9.70138 -67.96057 37007 ft 499 kts 47°
2026-04-25 15:21 9.74918 -67.90969 37002 ft 499 kts 47°
2026-04-25 15:21 9.79708 -67.85868 37004 ft 499 kts 47°
2026-04-25 15:22 9.84483 -67.80780 37016 ft 501 kts 47°
2026-04-25 15:22 9.89308 -67.75637 37017 ft 504 kts 47°
2026-04-25 15:23 9.94138 -67.70487 37020 ft 504 kts 47°
2026-04-25 15:23 9.98971 -67.65332 37019 ft 504 kts 47°
2026-04-25 15:24 10.03796 -67.60182 37017 ft 504 kts 47°
2026-04-25 15:24 10.07803 -67.55903 37009 ft 503 kts 47°
2026-04-25 15:25 10.13443 -67.49880 37011 ft 503 kts 48°
2026-04-25 15:25 10.18257 -67.44734 37013 ft 503 kts 48°
2026-04-25 15:26 10.23076 -67.39581 37011 ft 503 kts 48°
2026-04-25 15:26 10.27885 -67.34436 37012 ft 503 kts 48°
2026-04-25 15:27 10.32696 -67.29286 37006 ft 503 kts 48°
2026-04-25 15:28 10.39913 -67.21557 37016 ft 503 kts 47°
2026-04-25 15:28 10.44715 -67.16412 37002 ft 501 kts 48°
2026-04-25 15:29 10.49524 -67.11256 37004 ft 503 kts 48°
2026-04-25 15:29 10.54347 -67.06082 37005 ft 504 kts 48°
2026-04-25 15:30 10.59170 -67.00905 36967 ft 504 kts 48°
2026-04-25 15:30 10.63430 -66.95279 36965 ft 502 kts 57°
2026-04-25 15:31 10.67369 -66.89420 36969 ft 502 kts 58°
2026-04-25 15:31 10.71265 -66.83520 36971 ft 503 kts 57°
2026-04-25 15:32 10.75166 -66.77619 36975 ft 503 kts 57°
2026-04-25 15:32 10.79083 -66.71713 36976 ft 505 kts 57°
2026-04-25 15:33 10.84959 -66.62855 36962 ft 506 kts 57°
2026-04-25 15:33 10.88922 -66.56880 36964 ft 506 kts 57°
2026-04-25 15:34 10.92830 -66.50982 36963 ft 506 kts 57°
2026-04-25 15:34 10.96129 -66.46001 36954 ft 506 kts 57°
2026-04-25 15:35 11.02693 -66.36083 36960 ft 506 kts 57°
2026-04-25 15:36 11.08694 -66.27219 36957 ft 508 kts 56°
2026-04-25 15:36 11.12736 -66.21305 36958 ft 508 kts 57°
2026-04-25 15:37 11.16755 -66.15401 36964 ft 507 kts 57°
2026-04-25 15:37 11.20758 -66.09507 36965 ft 506 kts 57°
2026-04-25 15:38 11.24768 -66.03596 36966 ft 506 kts 57°
2026-04-25 15:38 11.28769 -65.97694 36965 ft 506 kts 57°
2026-04-25 15:39 11.32750 -65.91821 36966 ft 506 kts 57°
2026-04-25 15:39 11.36769 -65.85888 36965 ft 505 kts 57°
2026-04-25 15:40 11.39415 -65.81979 36968 ft 506 kts 57°
2026-04-25 15:40 11.44762 -65.74081 36965 ft 506 kts 57°
2026-04-25 15:41 11.48761 -65.68168 36967 ft 506 kts 57°
2026-04-25 15:41 11.52752 -65.62249 36969 ft 506 kts 57°
2026-04-25 15:42 11.56722 -65.56361 36965 ft 507 kts 57°
2026-04-25 15:42 11.60723 -65.50430 36967 ft 508 kts 57°
2026-04-25 15:43 11.64727 -65.44490 36969 ft 508 kts 57°
2026-04-25 15:43 11.68733 -65.38554 36969 ft 508 kts 56°
2026-04-25 15:44 11.72792 -65.32664 36967 ft 508 kts 56°
2026-04-25 15:44 11.76871 -65.26782 36969 ft 509 kts 56°
2026-04-25 15:45 11.80967 -65.20864 36965 ft 512 kts 56°
2026-04-25 15:45 11.83709 -65.16895 36966 ft 512 kts 56°
2026-04-25 15:46 11.89169 -65.08983 36965 ft 512 kts 56°
2026-04-25 15:46 11.93260 -65.03048 36966 ft 512 kts 56°
2026-04-25 15:47 11.97354 -64.97106 36968 ft 511 kts 56°
2026-04-25 15:47 12.01454 -64.91152 36968 ft 514 kts 56°
2026-04-25 15:48 12.05575 -64.85164 36964 ft 515 kts 56°
2026-04-25 15:48 12.09697 -64.79172 36966 ft 515 kts 56°
2026-04-25 15:49 12.13814 -64.73183 36966 ft 515 kts 56°
2026-04-25 15:49 12.17938 -64.67179 36965 ft 515 kts 56°
2026-04-25 15:50 12.22053 -64.61185 36967 ft 515 kts 56°
2026-04-25 15:50 12.26167 -64.55189 36972 ft 515 kts 56°
2026-04-25 15:51 12.28915 -64.51181 36967 ft 515 kts 56°
2026-04-25 15:51 12.34385 -64.43199 36965 ft 515 kts 56°
2026-04-25 15:52 12.38484 -64.37203 36972 ft 515 kts 56°
2026-04-25 15:52 12.42550 -64.31166 36971 ft 516 kts 57°
2026-04-25 15:53 12.46621 -64.25106 36972 ft 517 kts 57°
2026-04-25 15:53 12.50702 -64.19043 36971 ft 517 kts 56°
2026-04-25 15:54 12.54786 -64.12980 36973 ft 518 kts 56°
2026-04-25 15:54 12.58875 -64.06906 36973 ft 518 kts 56°
2026-04-25 15:55 12.62964 -64.00830 36971 ft 517 kts 57°
2026-04-25 15:55 12.67042 -63.94764 36973 ft 516 kts 57°
2026-04-25 15:56 12.71110 -63.88708 36973 ft 516 kts 57°
2026-04-25 15:56 12.75174 -63.82655 36977 ft 516 kts 57°
2026-04-25 15:57 12.79245 -63.76588 36975 ft 516 kts 57°
2026-04-25 15:57 12.83302 -63.70524 36979 ft 516 kts 57°
2026-04-25 15:58 12.87468 -63.64555 36980 ft 514 kts 52°
2026-04-25 15:58 12.91959 -63.58865 36978 ft 514 kts 51°
2026-04-25 15:59 12.96508 -63.53211 36976 ft 514 kts 51°
2026-04-25 15:59 13.01061 -63.47559 36976 ft 514 kts 51°
2026-04-25 16:00 13.04103 -63.43774 36982 ft 514 kts 51°
2026-04-25 16:00 13.09392 -63.37181 36982 ft 515 kts 51°
2026-04-25 16:01 13.13940 -63.31504 36980 ft 515 kts 51°
2026-04-25 16:01 13.18486 -63.25827 36980 ft 515 kts 51°
2026-04-25 16:02 13.23030 -63.20149 36980 ft 515 kts 51°
2026-04-25 16:02 13.27577 -63.14463 36980 ft 515 kts 51°
2026-04-25 16:03 13.32149 -63.08743 36979 ft 515 kts 51°
2026-04-25 16:03 13.36701 -63.03044 36984 ft 515 kts 51°
2026-04-25 16:04 13.41214 -62.97390 36979 ft 516 kts 51°
2026-04-25 16:04 13.45800 -62.91642 36977 ft 517 kts 51°
2026-04-25 16:05 13.50328 -62.85961 36980 ft 517 kts 51°
2026-04-25 16:06 13.57149 -62.77397 36979 ft 516 kts 51°
2026-04-25 16:06 13.61695 -62.71691 36983 ft 515 kts 51°
2026-04-25 16:07 13.66234 -62.65988 36984 ft 515 kts 51°
2026-04-25 16:07 13.70814 -62.60226 36982 ft 517 kts 51°
2026-04-25 16:08 13.75335 -62.54532 36982 ft 518 kts 51°
2026-04-25 16:08 13.79889 -62.48794 36982 ft 517 kts 52°
2026-04-25 16:09 13.84434 -62.43064 36983 ft 516 kts 52°
2026-04-25 16:09 13.88972 -62.37338 36983 ft 516 kts 52°
2026-04-25 16:10 13.93510 -62.31608 36988 ft 516 kts 52°
2026-04-25 16:10 13.98061 -62.25859 36985 ft 518 kts 52°
2026-04-25 16:11 14.02617 -62.20099 36982 ft 519 kts 51°
2026-04-25 16:11 14.07177 -62.14329 36985 ft 520 kts 52°
2026-04-25 16:12 14.11738 -62.08554 36984 ft 520 kts 52°
2026-04-25 16:12 14.16301 -62.02772 36982 ft 520 kts 52°
2026-04-25 16:13 14.20861 -61.96991 36988 ft 520 kts 52°
2026-04-25 16:13 14.25420 -61.91206 36978 ft 520 kts 51°
2026-04-25 16:14 14.29993 -61.85399 36982 ft 522 kts 51°
2026-04-25 16:14 14.34569 -61.79585 36983 ft 523 kts 51°
2026-04-25 16:15 14.39151 -61.73760 36980 ft 523 kts 51°
2026-04-25 16:15 14.43725 -61.67940 36981 ft 523 kts 51°
2026-04-25 16:16 14.48303 -61.62111 36986 ft 523 kts 52°
2026-04-25 16:16 14.52882 -61.56275 36982 ft 523 kts 52°
2026-04-25 16:17 14.57453 -61.50446 36988 ft 523 kts 52°
2026-04-25 16:17 14.62027 -61.44610 36985 ft 523 kts 52°
2026-04-25 16:18 14.66594 -61.38778 36988 ft 523 kts 52°
2026-04-25 16:18 14.71173 -61.32925 36984 ft 523 kts 52°
2026-04-25 16:19 14.75749 -61.27073 36991 ft 524 kts 52°
2026-04-25 16:19 14.80326 -61.21215 36993 ft 524 kts 52°
2026-04-25 16:20 14.87202 -61.12407 36987 ft 524 kts 52°
2026-04-25 16:21 14.94061 -61.03606 36994 ft 524 kts 52°
2026-04-25 16:21 14.98639 -60.97729 36992 ft 525 kts 52°
2026-04-25 16:22 15.03222 -60.91840 36994 ft 525 kts 52°
2026-04-25 16:22 15.07805 -60.85948 36999 ft 526 kts 52°
2026-04-25 16:23 15.12384 -60.80054 36996 ft 526 kts 52°
2026-04-25 16:23 15.16969 -60.74150 36993 ft 526 kts 52°
2026-04-25 16:24 15.21548 -60.68248 36998 ft 526 kts 52°
2026-04-25 16:24 15.26132 -60.62336 36994 ft 526 kts 52°
2026-04-25 16:25 15.30708 -60.56429 36999 ft 527 kts 51°
2026-04-25 16:25 15.35299 -60.50499 36998 ft 527 kts 51°
2026-04-25 16:26 15.39885 -60.44569 36993 ft 527 kts 51°
2026-04-25 16:26 15.44464 -60.38645 36996 ft 527 kts 51°
2026-04-25 16:27 15.49054 -60.32701 37000 ft 527 kts 51°
2026-04-25 16:27 15.53630 -60.26771 37001 ft 527 kts 51°
2026-04-25 16:28 15.58219 -60.20818 36995 ft 528 kts 51°
2026-04-25 16:28 15.62799 -60.14873 36997 ft 528 kts 51°
2026-04-25 16:29 15.67383 -60.08920 37000 ft 528 kts 51°
2026-04-25 16:29 15.71961 -60.02967 37000 ft 528 kts 51°
2026-04-25 16:30 15.75767 -59.98016 36996 ft 528 kts 51°
2026-04-25 16:30 15.81112 -59.91056 36999 ft 528 kts 51°
2026-04-25 16:31 15.85655 -59.85135 37002 ft 527 kts 51°
2026-04-25 16:31 15.90225 -59.79176 36997 ft 527 kts 51°
2026-04-25 16:32 15.94787 -59.73221 36998 ft 527 kts 51°
2026-04-25 16:32 15.99353 -59.67256 36994 ft 527 kts 51°
2026-04-25 16:33 16.03909 -59.61299 37008 ft 527 kts 51°
2026-04-25 16:33 16.08471 -59.55331 37000 ft 528 kts 51°
2026-04-25 16:34 16.13033 -59.49356 36997 ft 528 kts 51°
2026-04-25 16:34 16.17595 -59.43378 36999 ft 528 kts 51°
2026-04-25 16:35 16.22166 -59.37389 37001 ft 528 kts 51°
2026-04-25 16:35 16.26729 -59.31395 36996 ft 528 kts 51°
2026-04-25 16:36 16.31286 -59.25406 37005 ft 528 kts 51°
2026-04-25 16:36 16.35847 -59.19407 36990 ft 529 kts 51°
2026-04-25 16:37 16.40419 -59.13390 36999 ft 530 kts 51°
2026-04-25 16:37 16.44992 -59.07368 37003 ft 530 kts 51°
2026-04-25 16:38 16.49557 -59.01350 36999 ft 529 kts 51°
2026-04-25 16:38 16.54109 -58.95345 37006 ft 528 kts 51°
2026-04-25 16:39 16.58696 -58.89287 36995 ft 530 kts 51°
2026-04-25 16:39 16.63237 -58.83287 36997 ft 531 kts 51°
2026-04-25 16:40 16.67062 -58.78228 37001 ft 531 kts 51°
2026-04-25 16:40 16.71634 -58.72176 37003 ft 531 kts 51°
2026-04-25 16:41 16.76939 -58.65147 37001 ft 531 kts 51°
2026-04-25 16:41 16.83044 -58.57049 37003 ft 532 kts 51°
2026-04-25 16:42 16.87624 -58.50968 37005 ft 532 kts 51°
2026-04-25 16:42 16.92193 -58.44896 36997 ft 532 kts 51°
2026-04-25 16:43 16.96757 -58.38826 37009 ft 531 kts 51°
2026-04-25 16:43 17.01317 -58.32755 37007 ft 531 kts 51°
2026-04-25 16:44 17.05883 -58.26670 37013 ft 532 kts 51°
2026-04-25 16:44 17.10461 -58.20567 37011 ft 534 kts 51°
2026-04-25 16:45 17.15007 -58.14499 37013 ft 533 kts 51°
2026-04-25 16:45 17.19576 -58.08395 37012 ft 533 kts 51°
2026-04-25 16:46 17.24145 -58.02285 37013 ft 533 kts 51°
2026-04-25 16:46 17.27973 -57.97164 37017 ft 533 kts 51°
2026-04-25 16:47 17.33284 -57.90050 37014 ft 535 kts 51°
2026-04-25 16:47 17.37859 -57.83915 37015 ft 534 kts 51°
2026-04-25 16:48 17.42430 -57.77782 37015 ft 534 kts 51°
2026-04-25 16:48 17.46998 -57.71646 37015 ft 534 kts 51°
2026-04-25 16:49 17.51560 -57.65512 37024 ft 534 kts 51°
2026-04-25 16:49 17.56140 -57.59349 37017 ft 535 kts 51°
2026-04-25 16:50 17.60709 -57.53197 37018 ft 535 kts 51°
2026-04-25 16:50 17.65281 -57.47035 37018 ft 535 kts 51°
2026-04-25 16:51 17.69849 -57.40872 37020 ft 535 kts 51°
2026-04-25 16:51 17.73641 -57.35746 37020 ft 535 kts 51°
2026-04-25 16:52 17.78964 -57.28547 37020 ft 535 kts 51°
2026-04-25 16:52 17.83527 -57.22371 37020 ft 536 kts 51°
2026-04-25 16:53 17.90379 -57.13087 37020 ft 536 kts 51°
2026-04-25 16:54 17.94936 -57.06904 37020 ft 535 kts 51°
2026-04-25 16:54 17.99404 -57.00656 37023 ft 536 kts 58°
2026-04-25 16:55 18.02907 -56.93734 37020 ft 537 kts 64°
2026-04-25 16:55 18.06140 -56.86662 37020 ft 538 kts 65°
2026-04-25 16:56 18.09335 -56.79556 37020 ft 537 kts 65°
2026-04-25 16:56 18.12533 -56.72474 37021 ft 536 kts 65°
2026-04-25 16:57 18.15738 -56.65396 37021 ft 536 kts 65°
2026-04-25 16:57 18.18945 -56.58313 37020 ft 536 kts 65°
2026-04-25 16:58 18.22143 -56.51242 37021 ft 535 kts 65°
2026-04-25 16:58 18.25342 -56.44159 37020 ft 535 kts 65°
2026-04-25 16:59 18.28530 -56.37088 37020 ft 535 kts 65°
2026-04-25 16:59 18.31716 -56.30017 37020 ft 535 kts 65°
2026-04-25 17:00 18.34897 -56.22947 37021 ft 534 kts 65°
2026-04-25 17:00 18.38075 -56.15874 37028 ft 534 kts 65°
2026-04-25 17:01 18.41253 -56.08795 37020 ft 536 kts 65°
2026-04-25 17:01 18.44435 -56.01696 37018 ft 536 kts 65°
2026-04-25 17:02 18.47614 -55.94597 37021 ft 536 kts 65°
2026-04-25 17:02 18.50792 -55.87492 37023 ft 536 kts 65°
2026-04-25 17:03 18.53964 -55.80391 37023 ft 536 kts 65°
2026-04-25 17:03 18.57133 -55.73287 37023 ft 535 kts 65°
2026-04-25 17:04 18.60300 -55.66181 37024 ft 537 kts 65°
2026-04-25 17:04 18.63476 -55.59045 37023 ft 538 kts 65°
2026-04-25 17:05 18.66650 -55.51905 37015 ft 538 kts 65°
2026-04-25 17:05 18.71401 -55.41202 37024 ft 536 kts 65°
2026-04-25 17:06 18.74559 -55.34076 37026 ft 536 kts 65°
2026-04-25 17:06 18.77715 -55.26947 37029 ft 537 kts 65°
2026-04-25 17:07 18.80880 -55.19787 37026 ft 538 kts 65°
2026-04-25 17:07 18.84042 -55.12627 37025 ft 538 kts 65°
2026-04-25 17:08 18.87204 -55.05457 37025 ft 538 kts 65°
2026-04-25 17:08 18.90359 -54.98292 37025 ft 538 kts 65°
2026-04-25 17:09 18.93511 -54.91127 37029 ft 537 kts 65°
2026-04-25 17:09 18.96655 -54.83972 37034 ft 538 kts 65°
2026-04-25 17:10 18.99808 -54.76785 37033 ft 540 kts 65°
2026-04-25 17:10 19.02968 -54.69575 37033 ft 540 kts 65°
2026-04-25 17:11 19.06115 -54.62387 37032 ft 539 kts 65°
2026-04-25 17:11 19.09255 -54.55202 37033 ft 539 kts 65°
2026-04-25 17:12 19.12394 -54.48013 37033 ft 538 kts 65°
2026-04-25 17:12 19.15528 -54.40824 37036 ft 538 kts 65°
2026-04-25 17:13 19.17624 -54.36011 37032 ft 540 kts 65°
2026-04-25 17:13 19.21806 -54.26400 37031 ft 541 kts 65°
2026-04-25 17:14 19.24947 -54.19168 37035 ft 540 kts 65°
2026-04-25 17:14 19.28073 -54.11962 37034 ft 539 kts 65°
2026-04-25 17:15 19.31198 -54.04749 37039 ft 539 kts 65°
2026-04-25 17:15 19.34321 -53.97531 37036 ft 540 kts 65°
2026-04-25 17:16 19.37449 -53.90293 37034 ft 541 kts 65°
2026-04-25 17:16 19.40576 -53.83048 37034 ft 540 kts 65°
2026-04-25 17:17 19.43697 -53.75807 37035 ft 540 kts 65°
2026-04-25 17:17 19.46795 -53.68610 37034 ft 539 kts 65°
2026-04-25 17:18 19.49903 -53.61379 37034 ft 539 kts 65°
2026-04-25 17:18 19.53007 -53.54150 37038 ft 541 kts 65°
2026-04-25 17:19 19.56127 -53.46872 37037 ft 542 kts 65°
2026-04-25 17:19 19.59238 -53.39607 37040 ft 542 kts 65°
2026-04-25 17:20 19.62356 -53.32316 37037 ft 542 kts 65°
2026-04-25 17:20 19.65470 -53.25023 37031 ft 542 kts 65°
2026-04-25 17:21 19.68573 -53.17747 37049 ft 541 kts 65°
2026-04-25 17:21 19.71173 -53.11643 37040 ft 543 kts 65°
2026-04-25 17:22 19.73760 -53.05565 37039 ft 543 kts 65°
2026-04-25 17:22 19.77390 -52.97021 37039 ft 543 kts 65°
2026-04-25 17:23 19.80492 -52.89710 37040 ft 542 kts 65°
2026-04-25 17:23 19.83584 -52.82413 37039 ft 542 kts 65°
2026-04-25 17:24 19.86677 -52.75103 37044 ft 543 kts 65°
2026-04-25 17:24 19.89775 -52.67772 37042 ft 544 kts 65°
2026-04-25 17:25 19.92848 -52.60491 37042 ft 544 kts 65°
2026-04-25 17:25 19.95961 -52.53104 37042 ft 544 kts 65°
2026-04-25 17:26 19.99027 -52.45819 37042 ft 543 kts 65°
2026-04-25 17:26 20.02105 -52.38495 37043 ft 542 kts 65°
2026-04-25 17:27 20.05175 -52.31180 37042 ft 542 kts 65°
2026-04-25 17:27 20.07729 -52.25087 37040 ft 542 kts 65°
2026-04-25 17:28 20.11305 -52.16545 37040 ft 541 kts 65°
2026-04-25 17:28 20.14363 -52.09230 37039 ft 541 kts 65°
2026-04-25 17:29 20.17416 -52.01916 37039 ft 540 kts 65°
2026-04-25 17:29 20.20460 -51.94611 37041 ft 541 kts 65°
2026-04-25 17:30 20.23516 -51.87272 37042 ft 542 kts 65°
2026-04-25 17:30 20.26569 -51.79927 37044 ft 542 kts 65°
2026-04-25 17:31 20.29612 -51.72595 37042 ft 542 kts 65°
2026-04-25 17:31 20.32659 -51.65245 37042 ft 542 kts 65°
2026-04-25 17:32 20.35697 -51.57905 37055 ft 542 kts 65°
2026-04-25 17:32 20.38740 -51.50543 37048 ft 543 kts 65°
2026-04-25 17:33 20.41781 -51.43177 37045 ft 543 kts 65°
2026-04-25 17:33 20.44799 -51.35856 37042 ft 543 kts 65°
2026-04-25 17:34 20.47829 -51.28493 37044 ft 542 kts 65°
2026-04-25 17:34 20.50857 -51.21125 37045 ft 542 kts 65°
2026-04-25 17:35 20.53884 -51.13751 37046 ft 544 kts 65°
2026-04-25 17:35 20.56938 -51.06301 37045 ft 545 kts 65°
2026-04-25 17:36 20.59952 -50.98937 37048 ft 545 kts 65°
2026-04-25 17:36 20.62998 -50.91482 37048 ft 544 kts 65°
2026-04-25 17:37 20.66025 -50.84065 37047 ft 544 kts 65°
2026-04-25 17:37 20.69046 -50.76651 37049 ft 545 kts 65°
2026-04-25 17:38 20.71559 -50.70477 37053 ft 546 kts 65°
2026-04-25 17:38 20.75095 -50.61776 37050 ft 546 kts 65°
2026-04-25 17:39 20.78116 -50.54328 37051 ft 545 kts 65°
2026-04-25 17:39 20.81110 -50.46939 37048 ft 545 kts 65°
2026-04-25 17:40 20.84134 -50.39463 37047 ft 546 kts 65°
2026-04-25 17:40 20.87147 -50.32005 37048 ft 546 kts 65°
2026-04-25 17:41 20.90160 -50.24536 37051 ft 546 kts 65°
2026-04-25 17:41 20.93163 -50.17079 37055 ft 546 kts 65°
2026-04-25 17:42 20.96164 -50.09616 37051 ft 545 kts 65°
2026-04-25 17:42 20.99153 -50.02154 37048 ft 546 kts 65°
2026-04-25 17:43 21.01354 -49.94360 37050 ft 549 kts 74°
2026-04-25 17:43 21.03220 -49.86439 37049 ft 549 kts 75°
2026-04-25 17:44 21.05033 -49.78508 37052 ft 549 kts 75°
2026-04-25 17:44 21.06855 -49.70568 37056 ft 548 kts 75°
2026-04-25 17:45 21.08066 -49.65314 37053 ft 548 kts 75°
2026-04-25 17:45 21.10507 -49.54725 37052 ft 548 kts 75°
2026-04-25 17:46 21.12332 -49.46788 37051 ft 549 kts 75°
2026-04-25 17:46 21.14154 -49.38846 37049 ft 549 kts 75°
2026-04-25 17:47 21.15970 -49.30910 37049 ft 549 kts 75°
2026-04-25 17:47 21.17782 -49.22970 37046 ft 548 kts 75°
2026-04-25 17:48 21.20491 -49.11070 37046 ft 548 kts 75°
2026-04-25 17:49 21.22291 -49.03143 37052 ft 548 kts 75°
2026-04-25 17:49 21.24091 -48.95194 37053 ft 548 kts 75°
2026-04-25 17:50 21.25885 -48.87256 37052 ft 548 kts 75°
2026-04-25 17:50 21.27676 -48.79310 37053 ft 548 kts 75°
2026-04-25 17:51 21.29463 -48.71364 37061 ft 548 kts 75°
2026-04-25 17:51 21.31246 -48.63416 37052 ft 548 kts 75°
2026-04-25 17:52 21.33027 -48.55459 37056 ft 548 kts 75°
2026-04-25 17:52 21.34802 -48.47513 37055 ft 548 kts 75°
2026-04-25 17:53 21.36576 -48.39553 37054 ft 548 kts 75°
2026-04-25 17:53 21.38345 -48.31593 37060 ft 548 kts 75°
2026-04-25 17:54 21.40118 -48.23596 37054 ft 548 kts 75°
2026-04-25 17:54 21.41881 -48.15629 37055 ft 548 kts 75°
2026-04-25 17:55 21.43636 -48.07676 37056 ft 548 kts 75°
2026-04-25 17:55 21.45380 -47.99754 37048 ft 548 kts 75°
2026-04-25 17:56 21.47140 -47.91742 37062 ft 548 kts 75°
2026-04-25 17:56 21.48884 -47.83783 37058 ft 548 kts 75°
2026-04-25 17:57 21.50626 -47.75813 37060 ft 548 kts 76°
2026-04-25 17:57 21.52362 -47.67854 37062 ft 547 kts 75°
2026-04-25 17:58 21.54093 -47.59895 37056 ft 548 kts 75°
2026-04-25 17:58 21.55813 -47.51970 37060 ft 548 kts 75°
2026-04-25 17:59 21.57539 -47.43999 37062 ft 548 kts 75°
2026-04-25 17:59 21.58982 -47.37317 37055 ft 548 kts 75°
2026-04-25 18:00 21.60703 -47.29334 37063 ft 548 kts 75°
2026-04-25 18:00 21.62417 -47.21361 37071 ft 548 kts 75°
2026-04-25 18:01 21.64129 -47.13378 37062 ft 548 kts 75°
2026-04-25 18:01 21.65838 -47.05388 37058 ft 548 kts 75°
2026-04-25 18:02 21.67542 -46.97402 37066 ft 548 kts 75°
2026-04-25 18:02 21.69243 -46.89413 37062 ft 548 kts 75°
2026-04-25 18:03 21.70941 -46.81418 37060 ft 548 kts 75°
2026-04-25 18:03 21.72634 -46.73425 37062 ft 548 kts 75°
2026-04-25 18:04 21.74320 -46.65446 37057 ft 547 kts 75°
2026-04-25 18:04 21.76003 -46.57458 37057 ft 547 kts 75°
2026-04-25 18:05 21.77681 -46.49476 37062 ft 547 kts 75°
2026-04-25 18:05 21.79355 -46.41494 37063 ft 547 kts 75°
2026-04-25 18:06 21.81026 -46.33505 37061 ft 547 kts 75°
2026-04-25 18:06 21.82697 -46.25500 37066 ft 548 kts 75°
2026-04-25 18:07 21.84360 -46.17508 37064 ft 548 kts 75°
2026-04-25 18:07 21.86022 -46.09504 37064 ft 548 kts 75°
2026-04-25 18:08 21.87679 -46.01501 37067 ft 548 kts 75°
2026-04-25 18:08 21.89320 -45.93553 37063 ft 547 kts 76°
2026-04-25 18:09 21.90968 -45.85553 37074 ft 548 kts 75°
2026-04-25 18:09 21.92614 -45.77542 37070 ft 549 kts 75°
2026-04-25 18:10 21.94258 -45.69522 37067 ft 548 kts 76°
2026-04-25 18:10 21.95896 -45.61506 37069 ft 548 kts 76°
2026-04-25 18:11 21.97530 -45.53490 37070 ft 548 kts 76°
2026-04-25 18:11 21.99159 -45.45480 37070 ft 547 kts 76°
2026-04-25 18:12 22.00785 -45.37462 37067 ft 548 kts 76°
2026-04-25 18:12 22.02410 -45.29431 37073 ft 548 kts 76°
2026-04-25 18:13 22.04031 -45.21392 37071 ft 548 kts 76°
2026-04-25 18:13 22.05647 -45.13360 37072 ft 548 kts 76°
2026-04-25 18:14 22.08061 -45.01324 37086 ft 548 kts 76°
2026-04-25 18:14 22.09667 -44.93280 37075 ft 549 kts 76°
2026-04-25 18:15 22.11261 -44.85239 37071 ft 549 kts 76°
2026-04-25 18:15 22.12856 -44.77192 37074 ft 548 kts 76°
2026-04-25 18:16 22.14449 -44.69156 37071 ft 548 kts 76°
2026-04-25 18:17 22.16833 -44.57091 37077 ft 548 kts 76°
2026-04-25 18:17 22.18420 -44.49036 37075 ft 549 kts 76°
2026-04-25 18:18 22.20002 -44.40977 37076 ft 549 kts 76°
2026-04-25 18:18 22.21580 -44.32923 37076 ft 549 kts 76°
2026-04-25 18:19 22.23154 -44.24865 37078 ft 549 kts 76°
2026-04-25 18:19 22.24727 -44.16789 37071 ft 549 kts 76°
2026-04-25 18:20 22.26294 -44.08721 37084 ft 549 kts 76°
2026-04-25 18:20 22.27857 -44.00652 37070 ft 549 kts 76°
2026-04-25 18:21 22.29417 -43.92575 37089 ft 550 kts 76°
2026-04-25 18:21 22.30966 -43.84537 37075 ft 550 kts 76°
2026-04-25 18:22 22.32522 -43.76444 37080 ft 550 kts 76°
2026-04-25 18:22 22.34073 -43.68353 37077 ft 551 kts 76°
2026-04-25 18:23 22.35615 -43.60245 37078 ft 551 kts 76°
2026-04-25 18:23 22.37165 -43.52146 37082 ft 551 kts 76°
2026-04-25 18:24 22.38716 -43.44025 37077 ft 551 kts 76°
2026-04-25 18:24 22.40255 -43.35914 37085 ft 552 kts 76°
2026-04-25 18:25 22.41792 -43.27781 37065 ft 552 kts 76°
2026-04-25 18:25 22.43318 -43.19675 37088 ft 550 kts 76°
2026-04-25 18:26 22.44838 -43.11578 37074 ft 549 kts 76°
2026-04-25 18:26 22.46353 -43.03486 37080 ft 549 kts 76°
2026-04-25 18:27 22.47866 -42.95381 37081 ft 550 kts 76°
2026-04-25 18:27 22.49375 -42.87275 37095 ft 550 kts 76°
2026-04-25 18:28 22.50880 -42.79165 37075 ft 550 kts 76°
2026-04-25 18:28 22.52383 -42.71044 37074 ft 550 kts 76°
2026-04-25 18:29 22.54629 -42.58867 37088 ft 550 kts 76°
2026-04-25 18:30 22.57612 -42.42607 37095 ft 551 kts 76°
2026-04-25 18:30 22.59109 -42.34406 37087 ft 551 kts 76°
2026-04-25 18:31 22.60581 -42.26327 37091 ft 551 kts 76°
2026-04-25 18:31 22.62070 -42.18124 37089 ft 551 kts 76°
2026-04-25 18:32 22.63534 -42.10036 37090 ft 551 kts 76°
2026-04-25 18:32 22.65002 -42.01898 37091 ft 551 kts 76°
2026-04-25 18:33 22.66468 -41.93749 37093 ft 551 kts 76°
2026-04-25 18:33 22.67930 -41.85603 37089 ft 551 kts 76°
2026-04-25 18:34 22.69387 -41.77453 37104 ft 551 kts 76°
2026-04-25 18:34 22.70850 -41.69246 37090 ft 551 kts 76°
2026-04-25 18:35 22.72301 -41.61086 37093 ft 552 kts 76°
2026-04-25 18:35 22.73737 -41.52980 37092 ft 551 kts 76°
2026-04-25 18:36 22.75176 -41.44831 37091 ft 551 kts 76°
2026-04-25 18:36 22.76609 -41.36693 37089 ft 551 kts 76°
2026-04-25 18:37 22.78042 -41.28530 37097 ft 551 kts 76°
2026-04-25 18:37 22.79469 -41.20377 37096 ft 551 kts 76°
2026-04-25 18:38 22.80891 -41.12227 37095 ft 551 kts 76°
2026-04-25 18:38 22.82310 -41.04069 37093 ft 551 kts 76°
2026-04-25 18:39 22.83725 -40.95908 37096 ft 551 kts 76°
2026-04-25 18:39 22.85136 -40.87743 37100 ft 551 kts 76°
2026-04-25 18:40 22.86543 -40.79579 37097 ft 551 kts 76°
2026-04-25 18:40 22.87947 -40.71407 37094 ft 551 kts 76°
2026-04-25 18:41 22.89346 -40.63231 37098 ft 552 kts 76°
2026-04-25 18:41 22.90743 -40.55049 37097 ft 552 kts 76°
2026-04-25 18:42 22.91665 -40.49629 37097 ft 552 kts 76°
2026-04-25 18:42 22.93292 -40.40042 37099 ft 553 kts 76°
2026-04-25 18:43 22.94679 -40.31838 37097 ft 553 kts 76°
2026-04-25 18:43 22.96062 -40.23634 37104 ft 553 kts 76°
2026-04-25 18:44 22.97442 -40.15422 37099 ft 553 kts 76°
2026-04-25 18:44 22.98819 -40.07201 37102 ft 554 kts 76°
2026-04-25 18:45 22.99395 -39.98866 37103 ft 559 kts 95°
2026-04-25 18:45 22.97897 -39.90575 37097 ft 560 kts 103°
2026-04-25 18:46 22.95949 -39.82397 37103 ft 559 kts 105°
2026-04-25 18:46 22.93945 -39.74243 37102 ft 560 kts 105°
2026-04-25 18:47 22.91968 -39.66066 37102 ft 561 kts 104°
2026-04-25 18:47 22.90023 -39.57924 37108 ft 561 kts 104°
2026-04-25 18:48 22.88073 -39.49754 37101 ft 562 kts 104°
2026-04-25 18:48 22.86108 -39.41549 37101 ft 560 kts 104°
2026-04-25 18:49 22.84145 -39.33377 37107 ft 559 kts 104°
2026-04-25 18:49 22.82178 -39.25210 37102 ft 560 kts 104°
2026-04-25 18:50 22.80192 -39.16986 37101 ft 560 kts 104°
2026-04-25 18:50 22.78215 -39.08818 37103 ft 561 kts 104°
2026-04-25 18:51 22.76568 -39.02027 37105 ft 561 kts 104°
2026-04-25 18:51 22.74245 -38.92470 37102 ft 560 kts 104°
2026-04-25 18:52 22.72258 -38.84319 37099 ft 559 kts 104°
2026-04-25 18:52 22.70269 -38.76180 37102 ft 559 kts 104°
2026-04-25 18:53 22.68276 -38.68041 37103 ft 559 kts 104°
2026-04-25 18:53 22.66278 -38.59900 37103 ft 560 kts 104°
2026-04-25 18:54 22.63267 -38.47671 37096 ft 560 kts 105°
2026-04-25 18:55 22.61259 -38.39541 37103 ft 558 kts 105°
2026-04-25 18:55 22.59251 -38.31425 37101 ft 559 kts 105°
2026-04-25 18:56 22.57235 -38.23301 37107 ft 559 kts 105°
2026-04-25 18:56 22.55228 -38.15230 37103 ft 559 kts 105°
2026-04-25 18:57 22.53201 -38.07100 37103 ft 560 kts 105°
2026-04-25 18:57 22.51171 -37.98968 37103 ft 560 kts 105°
2026-04-25 18:58 22.49136 -37.90839 37100 ft 561 kts 105°
2026-04-25 18:58 22.46055 -37.78569 37102 ft 561 kts 105°
2026-04-25 18:59 22.41949 -37.62282 37102 ft 562 kts 105°
2026-04-25 19:00 22.38843 -37.50051 37103 ft 562 kts 105°
2026-04-25 19:01 22.35758 -37.37908 37101 ft 561 kts 105°
2026-04-25 19:01 22.33681 -37.29720 37102 ft 562 kts 105°
2026-04-25 19:02 22.30581 -37.17572 37106 ft 562 kts 105°
2026-04-25 19:03 22.28143 -37.08054 37101 ft 563 kts 105°
2026-04-25 19:03 22.25349 -36.97180 37111 ft 561 kts 105°
2026-04-25 19:04 22.22222 -36.85044 37102 ft 562 kts 105°
2026-04-25 19:05 22.18018 -36.68796 37103 ft 563 kts 105°
2026-04-25 19:06 22.15909 -36.60670 37102 ft 563 kts 105°
2026-04-25 19:06 22.12737 -36.48482 37096 ft 561 kts 105°
2026-04-25 19:07 22.09563 -36.36331 37101 ft 560 kts 105°
2026-04-25 19:08 22.06389 -36.24215 37109 ft 561 kts 105°
2026-04-25 19:09 22.02475 -36.09330 37105 ft 562 kts 105°
2026-04-25 19:10 21.98846 -35.95917 37104 ft 560 kts 109°
2026-04-25 19:10 21.96059 -35.88083 37104 ft 560 kts 112°
2026-04-25 19:11 21.93151 -35.80292 37102 ft 560 kts 112°
2026-04-25 19:11 21.90329 -35.72488 37109 ft 560 kts 111°
2026-04-25 19:12 21.87551 -35.64639 37104 ft 561 kts 111°
2026-04-25 19:12 21.84779 -35.56783 37091 ft 561 kts 111°
2026-04-25 19:13 21.82008 -35.48949 37115 ft 559 kts 111°
2026-04-25 19:13 21.79229 -35.41127 37102 ft 560 kts 111°
2026-04-25 19:14 21.76438 -35.33304 37103 ft 560 kts 111°
2026-04-25 19:14 21.73647 -35.25479 37100 ft 560 kts 111°
2026-04-25 19:15 21.70854 -35.17652 37104 ft 561 kts 111°
2026-04-25 19:15 21.68053 -35.09810 37102 ft 561 kts 111°
2026-04-25 19:16 21.65266 -35.02002 37096 ft 559 kts 111°
2026-04-25 19:16 21.62476 -34.94210 37103 ft 559 kts 111°
2026-04-25 19:17 21.59669 -34.86403 37098 ft 560 kts 111°
2026-04-25 19:17 21.56854 -34.78599 37100 ft 560 kts 111°
2026-04-25 19:18 21.54040 -34.70789 37105 ft 561 kts 111°
2026-04-25 19:18 21.51223 -34.62981 37116 ft 560 kts 111°
2026-04-25 19:19 21.48407 -34.55190 37099 ft 559 kts 111°
2026-04-25 19:19 21.45593 -34.47419 37109 ft 559 kts 111°
2026-04-25 19:20 21.42767 -34.39633 37105 ft 560 kts 111°
2026-04-25 19:20 21.39936 -34.31847 37098 ft 561 kts 111°
2026-04-25 19:21 21.37096 -34.24049 37095 ft 561 kts 112°
2026-04-25 19:21 21.32843 -34.12390 37105 ft 559 kts 112°
2026-04-25 19:22 21.30022 -34.04674 37110 ft 559 kts 112°
2026-04-25 19:23 21.25763 -33.93049 37090 ft 559 kts 112°
2026-04-25 19:23 21.21490 -33.81412 37091 ft 559 kts 112°
2026-04-25 19:24 21.19102 -33.74921 37084 ft 559 kts 112°
2026-04-25 19:25 21.13408 -33.59482 37094 ft 557 kts 112°
2026-04-25 19:25 21.10554 -33.51761 37094 ft 557 kts 112°
2026-04-25 19:26 21.07698 -33.44048 37092 ft 557 kts 112°
2026-04-25 19:26 21.04838 -33.36334 37092 ft 558 kts 112°
2026-04-25 19:27 21.02454 -33.29915 37088 ft 558 kts 112°
2026-04-25 19:27 20.99100 -33.20898 37088 ft 558 kts 112°
2026-04-25 19:28 20.96224 -33.13180 37099 ft 558 kts 112°
2026-04-25 19:28 20.93337 -33.05445 37085 ft 560 kts 112°
2026-04-25 19:29 20.90447 -32.97715 37078 ft 560 kts 112°
2026-04-25 19:29 20.87556 -32.89990 37085 ft 560 kts 112°
2026-04-25 19:30 20.84655 -32.82255 37086 ft 561 kts 112°
2026-04-25 19:30 20.81755 -32.74532 37089 ft 559 kts 112°
2026-04-25 19:31 20.78860 -32.66837 37085 ft 558 kts 112°
2026-04-25 19:31 20.75962 -32.59145 37090 ft 558 kts 112°
2026-04-25 19:32 20.73056 -32.51445 37070 ft 559 kts 112°
2026-04-25 19:32 20.70638 -32.45047 37085 ft 559 kts 112°
2026-04-25 19:33 20.67230 -32.36043 37088 ft 559 kts 112°
2026-04-25 19:33 20.64319 -32.28363 37081 ft 558 kts 112°
2026-04-25 19:34 20.61407 -32.20691 37080 ft 558 kts 112°
2026-04-25 19:34 20.58491 -32.13026 37082 ft 558 kts 112°
2026-04-25 19:35 20.55566 -32.05348 37082 ft 558 kts 113°
2026-04-25 19:35 20.52642 -31.97684 37079 ft 558 kts 113°
2026-04-25 19:36 20.49711 -31.90011 37080 ft 558 kts 113°
2026-04-25 19:36 20.46780 -31.82350 37072 ft 557 kts 113°
2026-04-25 19:37 20.43856 -31.74720 37080 ft 555 kts 113°
2026-04-25 19:37 20.40849 -31.67125 37073 ft 556 kts 116°
2026-04-25 19:38 20.37533 -31.59688 37073 ft 555 kts 117°
2026-04-25 19:38 20.34182 -31.52276 37075 ft 555 kts 117°
2026-04-25 19:39 20.30872 -31.44833 37072 ft 556 kts 116°
2026-04-25 19:39 20.27583 -31.37372 37068 ft 556 kts 116°
2026-04-25 19:40 20.24305 -31.29929 37073 ft 554 kts 116°
2026-04-25 19:40 20.21035 -31.22507 37072 ft 554 kts 116°
2026-04-25 19:41 20.17756 -31.15084 37074 ft 554 kts 116°
2026-04-25 19:41 20.15582 -31.10175 37072 ft 554 kts 116°
2026-04-25 19:42 20.11185 -31.00261 37070 ft 554 kts 116°
2026-04-25 19:42 20.07897 -30.92862 37066 ft 553 kts 116°
2026-04-25 19:43 20.04604 -30.85458 37076 ft 552 kts 116°
2026-04-25 19:43 20.01316 -30.78077 37069 ft 552 kts 116°
2026-04-25 19:44 19.98024 -30.70696 37066 ft 552 kts 116°
2026-04-25 19:44 19.94730 -30.63320 37066 ft 553 kts 116°
2026-04-25 19:45 19.91428 -30.55936 37067 ft 553 kts 116°
2026-04-25 19:45 19.88127 -30.48567 37064 ft 552 kts 116°
2026-04-25 19:46 19.84830 -30.41214 37069 ft 551 kts 116°
2026-04-25 19:46 19.81529 -30.33862 37070 ft 551 kts 116°
2026-04-25 19:47 19.78230 -30.26525 37070 ft 551 kts 116°
2026-04-25 19:47 19.74925 -30.19184 37066 ft 551 kts 116°
2026-04-25 19:48 19.71616 -30.11843 37065 ft 551 kts 116°
2026-04-25 19:48 19.68300 -30.04497 37041 ft 552 kts 116°
2026-04-25 19:49 19.66104 -29.99638 37061 ft 551 kts 116°
2026-04-25 19:49 19.61679 -29.89858 37061 ft 550 kts 116°
2026-04-25 19:50 19.56707 -29.78890 37059 ft 550 kts 116°
2026-04-25 19:51 19.53391 -29.71588 37058 ft 550 kts 116°
2026-04-25 19:51 19.50090 -29.64328 37056 ft 550 kts 116°
2026-04-25 19:52 19.46743 -29.56975 37050 ft 550 kts 116°
2026-04-25 19:52 19.43424 -29.49692 37060 ft 548 kts 116°
2026-04-25 19:53 19.40126 -29.42467 37055 ft 548 kts 116°
2026-04-25 19:53 19.36803 -29.35195 37055 ft 548 kts 116°
2026-04-25 19:54 19.33477 -29.27928 37050 ft 548 kts 116°
2026-04-25 19:54 19.30151 -29.20668 37054 ft 549 kts 117°
2026-04-25 19:55 19.26811 -29.13387 37053 ft 550 kts 117°
2026-04-25 19:55 19.23470 -29.06112 37048 ft 548 kts 117°
2026-04-25 19:56 19.20146 -28.98884 37048 ft 545 kts 117°
2026-04-25 19:56 19.16820 -28.91661 37049 ft 546 kts 117°
2026-04-25 19:57 19.13487 -28.84433 37047 ft 547 kts 117°
2026-04-25 19:57 19.10148 -28.77201 37048 ft 547 kts 117°
2026-04-25 19:58 19.06809 -28.69975 37045 ft 547 kts 117°
2026-04-25 19:58 19.03467 -28.62755 37046 ft 547 kts 117°
2026-04-25 19:59 19.00113 -28.55517 37044 ft 548 kts 117°
2026-04-25 19:59 18.96760 -28.48289 37042 ft 548 kts 117°
2026-04-25 20:00 18.93398 -28.41050 37045 ft 548 kts 117°
2026-04-25 20:00 18.90034 -28.33817 37045 ft 548 kts 117°
2026-04-25 20:01 18.84985 -28.22978 37039 ft 548 kts 117°
2026-04-25 20:01 18.81619 -28.15763 37030 ft 548 kts 117°
2026-04-25 20:02 18.78257 -28.08565 37040 ft 545 kts 117°
2026-04-25 20:02 18.74904 -28.01394 37042 ft 544 kts 117°
2026-04-25 20:03 18.71550 -27.94232 37037 ft 544 kts 117°
2026-04-25 20:03 18.68765 -27.88291 37037 ft 545 kts 117°
2026-04-25 20:04 18.65404 -27.81128 37034 ft 545 kts 117°
2026-04-25 20:04 18.62045 -27.73978 37036 ft 545 kts 117°
2026-04-25 20:05 18.58675 -27.66814 37027 ft 545 kts 117°
2026-04-25 20:05 18.55311 -27.59671 37034 ft 543 kts 117°
2026-04-25 20:06 18.51956 -27.52556 37313 ft 542 kts 117°
2026-04-25 20:06 18.50278 -27.48999 37538 ft 541 kts 117°
2026-04-25 20:06 18.48610 -27.45467 37760 ft 540 kts 117°
2026-04-25 20:07 18.46934 -27.41921 37964 ft 539 kts 117°
2026-04-25 20:07 18.45266 -27.38392 38175 ft 538 kts 117°
2026-04-25 20:07 18.43595 -27.34859 38390 ft 537 kts 118°
2026-04-25 20:07 18.41933 -27.31348 38594 ft 536 kts 118°
2026-04-25 20:08 18.40268 -27.27831 38778 ft 536 kts 118°
2026-04-25 20:08 18.38603 -27.24319 38929 ft 535 kts 118°
2026-04-25 20:08 18.35271 -27.17294 39024 ft 537 kts 118°
2026-04-25 20:09 18.31944 -27.10288 39031 ft 532 kts 118°
2026-04-25 20:09 18.28644 -27.03344 39030 ft 531 kts 118°
2026-04-25 20:10 18.25336 -26.96394 39023 ft 531 kts 118°
2026-04-25 20:10 18.22021 -26.89438 39023 ft 531 kts 118°
2026-04-25 20:11 18.18703 -26.82483 39024 ft 532 kts 118°
2026-04-25 20:11 18.15388 -26.75540 39020 ft 532 kts 118°
2026-04-25 20:12 18.12063 -26.68585 39016 ft 532 kts 118°
2026-04-25 20:12 18.09301 -26.62813 39024 ft 531 kts 118°
2026-04-25 20:13 18.05424 -26.54722 39018 ft 530 kts 118°
2026-04-25 20:13 18.02102 -26.47798 39018 ft 531 kts 118°
2026-04-25 20:14 17.98779 -26.40878 39018 ft 531 kts 118°
2026-04-25 20:14 17.95444 -26.33941 39017 ft 531 kts 118°
2026-04-25 20:15 17.92113 -26.27020 39018 ft 531 kts 118°
2026-04-25 20:15 17.88776 -26.20095 39007 ft 531 kts 118°
2026-04-25 20:16 17.85437 -26.13172 39013 ft 531 kts 118°
2026-04-25 20:16 17.82103 -26.06268 39016 ft 530 kts 118°
2026-04-25 20:17 17.78754 -25.99375 39011 ft 530 kts 119°
2026-04-25 20:17 17.75229 -25.92585 39015 ft 530 kts 121°
2026-04-25 20:18 17.71651 -25.85824 39014 ft 530 kts 121°
2026-04-25 20:18 17.68094 -25.79053 39013 ft 530 kts 120°
2026-04-25 20:19 17.64549 -25.72264 39000 ft 530 kts 121°
2026-04-25 20:19 17.61023 -25.65506 39011 ft 529 kts 121°
2026-04-25 20:20 17.57489 -25.58742 39006 ft 528 kts 121°
2026-04-25 20:20 17.53957 -25.51990 39006 ft 528 kts 121°
2026-04-25 20:21 17.50423 -25.45243 39006 ft 528 kts 121°
2026-04-25 20:21 17.46883 -25.38492 39012 ft 528 kts 121°
2026-04-25 20:22 17.44520 -25.33989 39006 ft 528 kts 121°
2026-04-25 20:22 17.39805 -25.25014 38997 ft 528 kts 121°
2026-04-25 20:23 17.36271 -25.18293 39011 ft 526 kts 121°
2026-04-25 20:23 17.32742 -25.11590 39012 ft 525 kts 121°
2026-04-25 20:24 17.29214 -25.04896 39004 ft 525 kts 121°
2026-04-25 20:24 17.25685 -24.98206 38992 ft 525 kts 121°
2026-04-25 20:25 17.22151 -24.91516 39009 ft 526 kts 121°
2026-04-25 20:25 17.18612 -24.84822 39003 ft 526 kts 121°
2026-04-25 20:26 17.15073 -24.78136 38994 ft 526 kts 121°
2026-04-25 20:26 17.11532 -24.71452 38999 ft 525 kts 121°
2026-04-25 20:27 17.07992 -24.64776 38988 ft 525 kts 121°
2026-04-25 20:27 17.04448 -24.58099 38991 ft 526 kts 121°
2026-04-25 20:28 17.00897 -24.51416 38994 ft 526 kts 121°
2026-04-25 20:28 16.97347 -24.44738 38965 ft 526 kts 121°
2026-04-25 20:29 16.93798 -24.38070 38977 ft 526 kts 121°
2026-04-25 20:29 16.90236 -24.31383 38974 ft 526 kts 121°
2026-04-25 20:30 16.86679 -24.24713 38978 ft 526 kts 121°
2026-04-25 20:30 16.83119 -24.18043 38980 ft 525 kts 121°
2026-04-25 20:31 16.79563 -24.11389 38982 ft 525 kts 121°
2026-04-25 20:31 16.76003 -24.04733 38984 ft 525 kts 121°
2026-04-25 20:32 16.72442 -23.98083 38985 ft 525 kts 121°
2026-04-25 20:32 16.68876 -23.91431 38983 ft 525 kts 121°
2026-04-25 20:33 16.65307 -23.84779 38980 ft 525 kts 121°
2026-04-25 20:33 16.62946 -23.80380 38980 ft 525 kts 121°
2026-04-25 20:34 16.58188 -23.71526 38971 ft 525 kts 121°
2026-04-25 20:34 16.54619 -23.64893 38971 ft 525 kts 121°
2026-04-25 20:35 16.51039 -23.58246 38968 ft 525 kts 121°
2026-04-25 20:35 16.47536 -23.51741 38971 ft 502 kts 121°
2026-04-25 20:36 16.44161 -23.45483 38966 ft 494 kts 122°
2026-04-25 20:36 16.40785 -23.39240 38959 ft 496 kts 122°
2026-04-25 20:37 16.37394 -23.32971 38946 ft 496 kts 122°
2026-04-25 20:37 16.34014 -23.26723 38960 ft 494 kts 122°
2026-04-25 20:38 16.30651 -23.20511 38963 ft 492 kts 122°
2026-04-25 20:38 16.27287 -23.14305 38959 ft 492 kts 122°
2026-04-25 20:39 16.23923 -23.08105 38966 ft 492 kts 122°
2026-04-25 20:39 16.21672 -23.03958 38963 ft 492 kts 122°
2026-04-25 20:40 16.17186 -22.95702 38938 ft 492 kts 122°
2026-04-25 20:40 16.13812 -22.89498 38940 ft 492 kts 122°
2026-04-25 20:41 16.10471 -22.83287 38928 ft 493 kts 121°
2026-04-25 20:41 16.07176 -22.77050 38941 ft 490 kts 121°
2026-04-25 20:42 16.03895 -22.70849 38949 ft 489 kts 121°
2026-04-25 20:42 16.00606 -22.64660 38955 ft 490 kts 121°
2026-04-25 20:43 15.97309 -22.58468 38959 ft 490 kts 121°
2026-04-25 20:43 15.94009 -22.52277 38967 ft 490 kts 121°
2026-04-25 20:44 15.91265 -22.47131 38962 ft 490 kts 121°
2026-04-25 20:44 15.87958 -22.40935 38963 ft 490 kts 121°
2026-04-25 20:45 15.84655 -22.34749 38963 ft 490 kts 121°
2026-04-25 20:45 15.81348 -22.28561 38959 ft 489 kts 121°
2026-04-25 20:46 15.78049 -22.22393 38961 ft 488 kts 121°
2026-04-25 20:46 15.74752 -22.16237 38959 ft 488 kts 121°
2026-04-25 20:47 15.71451 -22.10079 38959 ft 488 kts 121°
2026-04-25 20:47 15.68147 -22.03919 38957 ft 488 kts 122°
2026-04-25 20:48 15.64846 -21.97771 38959 ft 488 kts 122°
2026-04-25 20:48 15.61540 -21.91619 38957 ft 488 kts 122°
2026-04-25 20:49 15.58228 -21.85460 38956 ft 488 kts 122°
2026-04-25 20:49 15.54921 -21.79315 38952 ft 488 kts 122°
2026-04-25 20:50 15.51617 -21.73181 38955 ft 487 kts 122°
2026-04-25 20:50 15.48315 -21.67058 38957 ft 487 kts 122°
2026-04-25 20:51 15.45006 -21.60925 38953 ft 487 kts 122°
2026-04-25 20:51 15.41694 -21.54793 38955 ft 487 kts 122°
2026-04-25 20:52 15.38945 -21.49706 38955 ft 487 kts 122°
2026-04-25 20:52 15.35073 -21.42548 38948 ft 487 kts 122°
2026-04-25 20:53 15.31760 -21.36428 38947 ft 487 kts 122°
2026-04-25 20:53 15.28441 -21.30302 38936 ft 487 kts 122°
2026-04-25 20:54 15.25131 -21.24199 38947 ft 486 kts 122°
2026-04-25 20:54 15.21825 -21.18106 38947 ft 485 kts 122°
2026-04-25 20:55 15.18515 -21.12013 38947 ft 485 kts 122°
2026-04-25 20:55 15.15206 -21.05926 38947 ft 485 kts 122°
2026-04-25 20:56 15.11894 -20.99837 38941 ft 485 kts 122°
2026-04-25 20:56 15.08581 -20.93753 38941 ft 485 kts 122°
2026-04-25 20:57 15.05263 -20.87665 38944 ft 485 kts 122°
2026-04-25 20:57 15.01946 -20.81585 38944 ft 485 kts 122°
2026-04-25 20:58 14.98629 -20.75508 38939 ft 484 kts 122°
2026-04-25 20:58 14.95322 -20.69455 38939 ft 483 kts 122°
2026-04-25 20:59 14.92018 -20.63410 38938 ft 483 kts 122°
2026-04-25 20:59 14.88713 -20.57368 38938 ft 483 kts 122°
2026-04-25 21:00 14.86518 -20.53359 38940 ft 483 kts 122°
2026-04-25 21:01 14.80464 -20.42306 38937 ft 482 kts 122°
2026-04-25 21:01 14.77155 -20.36272 38936 ft 482 kts 122°
2026-04-25 21:02 14.73844 -20.30241 38938 ft 482 kts 122°
2026-04-25 21:02 14.70539 -20.24226 38931 ft 482 kts 122°
2026-04-25 21:03 14.67820 -20.17906 38935 ft 482 kts 111°
2026-04-25 21:03 14.65651 -20.11341 38935 ft 483 kts 109°
2026-04-25 21:04 14.63567 -20.04743 38933 ft 483 kts 109°
2026-04-25 21:04 14.61476 -19.98147 38933 ft 483 kts 109°
2026-04-25 21:05 14.59369 -19.91561 38925 ft 483 kts 110°
2026-04-25 21:05 14.57251 -19.84972 38925 ft 483 kts 110°
2026-04-25 21:06 14.55132 -19.78389 38925 ft 483 kts 110°
2026-04-25 21:06 14.53012 -19.71809 38925 ft 483 kts 110°
2026-04-25 21:07 14.50893 -19.65234 38925 ft 483 kts 110°
2026-04-25 21:07 14.48772 -19.58662 38925 ft 483 kts 110°
2026-04-25 21:08 14.46649 -19.52089 38919 ft 483 kts 110°
2026-04-25 21:08 14.44522 -19.45512 38916 ft 483 kts 110°
2026-04-25 21:09 14.41340 -19.35686 38917 ft 481 kts 110°
2026-04-25 21:09 14.39217 -19.29137 38911 ft 481 kts 110°
2026-04-25 21:10 14.37095 -19.22599 38914 ft 481 kts 110°
2026-04-25 21:10 14.34969 -19.16056 38914 ft 481 kts 110°
2026-04-25 21:11 14.32846 -19.09530 38911 ft 481 kts 110°
2026-04-25 21:11 14.30717 -19.02990 38911 ft 480 kts 110°
2026-04-25 21:12 14.28596 -18.96482 38624 ft 476 kts 110°
2026-04-25 21:12 14.27536 -18.93231 37991 ft 479 kts 109°
2026-04-25 21:12 14.26832 -18.91077 37550 ft 480 kts 109°
2026-04-25 21:13 14.25401 -18.86697 36735 ft 483 kts 109°
2026-04-25 21:13 14.24330 -18.83418 36147 ft 484 kts 109°
2026-04-25 21:13 14.23252 -18.80123 35570 ft 486 kts 109°
2026-04-25 21:13 14.22170 -18.76814 34956 ft 488 kts 109°
2026-04-25 21:14 14.21085 -18.73496 34374 ft 490 kts 109°
2026-04-25 21:14 14.19995 -18.70169 33780 ft 491 kts 108°
2026-04-25 21:14 14.18900 -18.66824 33108 ft 493 kts 108°
2026-04-25 21:14 14.17801 -18.63471 32423 ft 495 kts 108°
2026-04-25 21:15 14.17072 -18.61248 31990 ft 495 kts 108°
2026-04-25 21:15 14.15612 -18.56793 31157 ft 496 kts 107°
2026-04-25 21:15 14.14506 -18.53423 30487 ft 498 kts 107°
2026-04-25 21:15 14.13395 -18.50037 29818 ft 499 kts 107°
2026-04-25 21:16 14.12288 -18.46667 29286 ft 495 kts 107°
2026-04-25 21:16 14.11189 -18.43325 28729 ft 491 kts 107°
2026-04-25 21:16 14.10095 -18.39999 28110 ft 490 kts 107°
2026-04-25 21:16 14.09005 -18.36685 27581 ft 486 kts 107°
2026-04-25 21:17 14.07924 -18.33400 27077 ft 482 kts 108°
2026-04-25 21:17 14.06853 -18.30148 26581 ft 478 kts 108°
2026-04-25 21:17 14.05788 -18.26918 26084 ft 474 kts 108°
2026-04-25 21:17 14.04732 -18.23713 25611 ft 470 kts 108°
2026-04-25 21:18 14.03686 -18.20542 25108 ft 466 kts 108°
2026-04-25 21:18 14.02644 -18.17386 24608 ft 463 kts 108°
2026-04-25 21:18 14.01613 -18.14262 24144 ft 460 kts 108°
2026-04-25 21:18 14.00588 -18.11157 23717 ft 455 kts 108°
2026-04-25 21:19 13.99572 -18.08082 23156 ft 453 kts 108°
2026-04-25 21:19 13.98563 -18.05011 22536 ft 452 kts 108°
2026-04-25 21:19 13.97982 -18.01866 22074 ft 446 kts 91°
2026-04-25 21:19 13.98306 -17.98720 21527 ft 441 kts 73°
2026-04-25 21:20 13.99486 -17.95835 20976 ft 436 kts 58°
2026-04-25 21:20 14.00016 -17.94939 20834 ft 433 kts 55°
2026-04-25 21:20 14.03018 -17.90861 19975 ft 428 kts 48°
2026-04-25 21:20 14.04922 -17.88530 19480 ft 425 kts 47°
2026-04-25 21:21 14.06835 -17.86166 18979 ft 423 kts 49°
2026-04-25 21:21 14.08659 -17.83842 18503 ft 421 kts 49°
2026-04-25 21:21 14.10459 -17.81474 18011 ft 419 kts 50°
2026-04-25 21:21 14.12228 -17.79092 17480 ft 416 kts 51°
2026-04-25 21:22 14.13966 -17.76720 16995 ft 413 kts 51°
2026-04-25 21:22 14.15683 -17.74361 16468 ft 410 kts 51°
2026-04-25 21:22 14.17388 -17.72016 16017 ft 407 kts 52°
2026-04-25 21:22 14.19078 -17.69692 15512 ft 405 kts 52°
2026-04-25 21:23 14.20760 -17.67380 15069 ft 401 kts 52°
2026-04-25 21:23 14.22428 -17.65090 14603 ft 398 kts 52°
2026-04-25 21:23 14.24091 -17.62808 14153 ft 396 kts 52°
2026-04-25 21:23 14.25737 -17.60549 13727 ft 393 kts 52°
2026-04-25 21:24 14.27374 -17.58302 13220 ft 391 kts 52°
2026-04-25 21:24 14.28996 -17.56077 12771 ft 387 kts 53°
2026-04-25 21:24 14.30614 -17.53855 12284 ft 385 kts 53°
2026-04-25 21:24 14.32207 -17.51668 11980 ft 378 kts 53°
2026-04-25 21:25 14.33756 -17.49541 11738 ft 360 kts 53°
2026-04-25 21:25 14.35197 -17.47562 11512 ft 331 kts 53°
2026-04-25 21:25 14.36533 -17.45725 11293 ft 312 kts 53°
2026-04-25 21:25 14.37816 -17.43961 11073 ft 305 kts 53°
2026-04-25 21:26 14.38658 -17.42803 10916 ft 304 kts 54°
2026-04-25 21:26 14.39928 -17.41056 10634 ft 303 kts 54°
2026-04-25 21:26 14.41185 -17.39327 10430 ft 298 kts 54°
2026-04-25 21:26 14.42427 -17.37617 10159 ft 298 kts 54°
2026-04-25 21:27 14.43660 -17.35919 9948 ft 295 kts 54°
2026-04-25 21:27 14.44859 -17.34213 9867 ft 293 kts 60°
2026-04-25 21:27 14.45641 -17.32287 9868 ft 291 kts 81°
2026-04-25 21:27 14.45688 -17.30240 9826 ft 283 kts 100°
2026-04-25 21:28 14.45281 -17.28270 9709 ft 273 kts 108°
2026-04-25 21:28 14.44714 -17.26459 9608 ft 263 kts 112°
2026-04-25 21:28 14.44086 -17.24741 9384 ft 249 kts 113°
2026-04-25 21:28 14.43467 -17.23131 9139 ft 237 kts 114°
2026-04-25 21:29 14.42862 -17.21557 8826 ft 236 kts 112°
2026-04-25 21:29 14.42269 -17.19974 8540 ft 235 kts 112°
2026-04-25 21:29 14.41694 -17.18397 8121 ft 235 kts 111°
2026-04-25 21:29 14.41129 -17.16807 7779 ft 237 kts 110°
2026-04-25 21:30 14.40569 -17.15210 7565 ft 236 kts 109°
2026-04-25 21:30 14.40016 -17.13618 7348 ft 235 kts 109°
2026-04-25 21:30 14.39462 -17.12021 7013 ft 231 kts 109°
2026-04-25 21:30 14.39103 -17.10988 6680 ft 232 kts 108°
2026-04-25 21:31 14.38379 -17.08904 6021 ft 234 kts 108°
2026-04-25 21:31 14.37806 -17.07331 5529 ft 233 kts 107°
2026-04-25 21:31 14.37229 -17.05779 5066 ft 230 kts 108°
2026-04-25 21:31 14.36660 -17.04250 4594 ft 227 kts 104°
2026-04-25 21:32 14.36577 -17.02670 4020 ft 218 kts 70°
2026-04-25 21:32 14.37328 -17.01381 3527 ft 209 kts 37°
2026-04-25 21:32 14.38616 -17.00805 3044 ft 203 kts
2026-04-25 21:32 14.39982 -17.01124 2482 ft 208 kts 330°
2026-04-25 21:33 14.40913 -17.02249 2093 ft 211 kts 294°
2026-04-25 21:33 14.41013 -17.03763 1992 ft 218 kts 258°
2026-04-25 21:33 14.40414 -17.05215 1994 ft 222 kts 248°
2026-04-25 21:33 14.40075 -17.06729 1974 ft 214 kts 279°
2026-04-25 21:34 14.40560 -17.08106 1991 ft 201 kts 313°
2026-04-25 21:34 14.41668 -17.08880 1988 ft 193 kts 347°
2026-04-25 21:34 14.43007 -17.08910 1995 ft 196 kts
2026-04-25 21:34 14.44356 -17.08709 1993 ft 192 kts
2026-04-25 21:35 14.45615 -17.08487 2013 ft 174 kts 10°
2026-04-25 21:35 14.46795 -17.08279 2019 ft 173 kts 10°
2026-04-25 21:35 14.47981 -17.08019 2003 ft 175 kts 15°
2026-04-25 21:35 14.49149 -17.07661 1992 ft 176 kts 20°
2026-04-25 21:36 14.50310 -17.07273 1990 ft 174 kts 11°
2026-04-25 21:36 14.51508 -17.07173 1989 ft 173 kts
2026-04-25 21:36 14.52720 -17.07164 1992 ft 176 kts
2026-04-25 21:36 14.53949 -17.07160 2006 ft 178 kts
2026-04-25 21:37 14.55185 -17.07175 2000 ft 177 kts
2026-04-25 21:37 14.55996 -17.07184 2001 ft 175 kts
2026-04-25 21:37 14.57609 -17.07196 1807 ft 168 kts
2026-04-25 21:37 14.58738 -17.07205 1603 ft 156 kts
2026-04-25 21:38 14.59772 -17.07215 1406 ft 140 kts 359°
2026-04-25 21:38 14.60706 -17.07223 1223 ft 128 kts 359°
2026-04-25 21:38 14.61577 -17.07235 1065 ft 127 kts 358°
2026-04-25 21:38 14.62466 -17.07243 904 ft 127 kts
2026-04-25 21:39 14.63370 -17.07238 717 ft 131 kts 358°
2026-04-25 21:39 14.64255 -17.07255 510 ft 124 kts 357°
2026-04-25 21:39 14.65114 -17.07267 367 ft 124 kts 359°
2026-04-25 21:39 14.65956 -17.07272 287 ft 109 kts 360°
2026-04-25 21:40 14.66476 -17.07276 300 ft 62 kts 360°
2026-04-25 21:40 14.66928 -17.07277 306 ft 50 kts
2026-04-25 21:40 14.67075 -17.07171 303 ft 7 kts 83°
2026-04-25 21:40 14.67075 -17.07163 303 ft 0 kts 86°
2026-04-25 21:41 14.67076 -17.07145 303 ft 13 kts 86°
2026-04-25 21:41 14.67073 -17.07009 299 ft 19 kts 113°
2026-04-25 21:42 14.66977 -17.06979 298 ft 15 kts 180°
2026-04-25 21:42 14.66938 -17.06954 298 ft 7 kts 105°
2026-04-25 21:42 14.66962 -17.06882 300 ft 11 kts 63°
2026-04-25 21:42 14.66984 -17.06839 300 ft 1 kts 64°